Regional Weather Roundup
Issued by NWS State College, PA

Home | Current Version | Previous Version | Graphics & Text | Print | Product List | Glossary On
Versions: 1 2 3 4 5 6 7 8 9 10 11 12 13 14 15 16 17 18 19 20 21 22 23 24 25 26 27 28 29 30 31 32 33 34 35 36 37 38 39 40 41 42 43 44 45 46 47 48 49 50
000
ASUS41 KCTP 092310
RWRCTP

REGIONAL WEATHER ROUNDUP
NATIONAL WEATHER SERVICE STATE COLLEGE PA
600 PM EST FRI DEC 09 2016

Note: "fair" indicates few or no clouds below 12,000 feet with no
significant weather and/or obstructions to visibility.

* = STATION THAT DOES NOT REPORT PRECIPITATION /E.G. RAIN...SNOW...ETC/
    THUNDER OR FOG.

PAZ002>004-007>009-013>016-020>023-029>032-100000-
WESTERN PENNSYLVANIA

CITY           SKY/WX    TMP DP  RH WIND       PRES   REMARKS
ERIE           CLOUDY    32  17  54 W15G25    30.33R
MEADVILLE      LGT SNOW  25  22  88 W9        30.32R FOG
FRANKLIN*        N/A     25  19  80 W12       30.33R WCI  14
NEW CASTLE     MOCLDY    25  19  78 SW12      30.38R WCI  14
BEAVER COUNTY  NOT AVBL
BUTLER*        PTCLDY    25  16  68 W12       30.39R WCI  14
PITTSBURGH INT CLOUDY    27  18  69 W10       30.40R
PITTSBURGH     CLOUDY    25  16  68 W7G18     30.39R
INDIANA*       CLOUDY    25  19  80 W16G22    30.37R WCI  12
LATROBE        CLOUDY    25  18  74 W12G23    30.40R WCI  14
WASHINGTON CO* CLOUDY    25  18  74 W8        30.42R
$$

PAZ004>006-010>012-017>019-024>028-033>037-041-042-045-046-049>053-100000-
CENTRAL PENNSYLVANIA

CITY           SKY/WX    TMP DP  RH WIND       PRES   REMARKS
BRADFORD       SNOW      23  21  92 W7        30.22R VSB 1/2 WCI  15
DUBOIS         LGT SNOW  24  20  84 W12       30.27R FOG     WCI  13
CLEARFIELD     FLURRIES  25  21  85 W9        30.28R
JOHNSTOWN      CLOUDY    21  17  84 W13       30.27R WCI   9
ALTOONA        CLOUDY    24  19  81 W9        30.31R WCI  14
STATE COLLEGE  PTCLDY    27  18  69 SW13G23   30.28R
WILLIAMSPORT   CLOUDY    31  24  75 W12       30.27R
SELINSGROVE    CLOUDY    30  26  85 CALM      30.30R
FT INDIANTOWN  MOCLDY    32  17  54 W14G20    30.29R
CAPITAL CITY   CLEAR     32  16  51 W10       30.32R
HARRISBURG     PTCLDY    32  20  61 W17       30.31R
YORK           PTCLDY    30  18  60 W12       30.33R
$$

PAZ038>040-043-044-047-048-054-055-060>062-067>071-100000-
EASTERN PENNSYLVANIA

CITY           SKY/WX    TMP DP  RH WIND       PRES   REMARKS
SCRANTON       CLEAR     27  16  63 NW8       30.23R
MOUNT POCONO   CLEAR     22  13  68 NW18G28   30.13R WCI   7
ALLENTOWN      PTCLDY    32  18  56 W8        30.25R
QUAKERTOWN*    PTCLDY    32  19  59 W6        30.26R
READING        CLOUDY    33  20  58 NW13      30.28R
LANCASTER      PTCLDY    31  19  61 W12       30.30R
COATESVILLE    PTCLDY    30  18  59 W12G21    30.29R
POTTSTOWN      MOCLDY    32  18  56 W9        30.28R
BLUE BELL        N/A     32  19  59 W6        30.26R
DOYLESTOWN     MOCLDY    33  20  58 W10       30.25R
WILLOW GROVE   NOT AVBL
NORTH PHILA    PTCLDY    35  18  49 W15G21    30.29R
PHILADELPHIA   MOCLDY    36  16  44 W15       30.30R
$$




USA.gov is the U.S. government's official web portal to all federal, state and local government web resources and services.